Greenville, AL

1:51 PM CDT on July 27, 2017 (GMT -0500)
Greenville Municipal

Weather History for KPRN - February, 2014

Change the Weather History Date:

Thursday, February 27, 2014

  Actual Average Record
Temperature  
Mean Temperature 40 °F -  
Max Temperature 51 °F 64 °F 86 °F (1962)
Min Temperature 28 °F 41 °F 20 °F (1963)
Degree Days  
Heating Degree Days 26    
Moisture  
Dew Point 16 °F    
Average Humidity 47    
Maximum Humidity 82    
Minimum Humidity 18    
Precipitation  
Precipitation 0.00 in - - ()
Sea Level Pressure  
Sea Level Pressure 30.03 in    
Wind  
Wind Speed 8 mph (NNW)    
Max Wind Speed 14 mph    
Max Gust Speed 16 mph    
Visibility 10 miles    
Events      
Averages and records for this station are not official NWS values.
T = Trace of Precipitation, MM = Missing Value Source: NWS Daily Summary

Daily Weather History Graph

Daily Weather History Graph

Search for Another Location

Airport or City:

Trip Planner

Search our weather history database for the weather conditions in past years. The results will help you decide how hot, cold, wet, or windy it might be!

Date:

Astronomy

Feb. 27, 2014 Rise Set
Actual Time 6:15 AM CST 5:42 PM CST
Civil Twilight 5:51 AM CST 6:07 PM CST
Nautical Twilight 5:23 AM CST 6:35 PM CST
Astronomical Twilight 4:54 AM CST 7:03 PM CST
Moon 4:43 AM CST 4:10 PM CST
Length of Visible Light 12h 16m
Length of Day
11h 26m
Waning Crescent, 4% of the Moon is Illuminated
Feb 27
Waning Crescent
Mar 1
New
Mar 8
First Quarter
Mar 16
Full
Mar 23
Last Quarter

Hourly Weather History & Observations

Time (CST) Temp. Windchill Dew Point Humidity Pressure Visibility Wind Dir Wind Speed Gust Speed Precip Events Conditions
12:56 AM 36.0 °F 30.3 °F 26.1 °F 67% 30.01 in 10.0 mi NW 6.9 mph - N/A   Clear
1:56 AM 35.1 °F 27.4 °F 25.0 °F 67% 30.00 in 10.0 mi NNW 10.4 mph - N/A   Clear
2:56 AM 34.0 °F 26.6 °F 21.0 °F 59% 30.00 in 10.0 mi NNW 9.2 mph - N/A   Clear
3:56 AM 32.0 °F 23.6 °F 17.1 °F 54% 30.01 in 10.0 mi NNW 10.4 mph - N/A   Clear
4:56 AM 28.9 °F 22.8 °F 16.0 °F 58% 30.03 in 10.0 mi NNW 5.8 mph - N/A   Clear
5:56 AM 28.0 °F 19.3 °F 16.0 °F 61% 30.04 in 10.0 mi North 9.2 mph - N/A   Clear
6:56 AM 28.9 °F 21.9 °F 15.1 °F 56% 30.06 in 10.0 mi North 6.9 mph - N/A   Clear
7:56 AM 32.0 °F 23.0 °F 12.9 °F 45% 30.07 in 10.0 mi North 11.5 mph - N/A   Clear
8:56 AM 36.0 °F 27.1 °F 10.0 °F 34% 30.08 in 10.0 mi North 13.8 mph - N/A   Clear
9:56 AM 39.9 °F 33.4 °F 10.0 °F 29% 30.07 in 10.0 mi North 10.4 mph 16.1 mph N/A   Clear
10:56 AM 42.1 °F 37.7 °F 7.0 °F 24% 30.07 in 10.0 mi NNW 6.9 mph - N/A   Clear
11:56 AM 46.9 °F - 9.0 °F 21% 30.04 in 10.0 mi NNE 8.1 mph - N/A   Clear
12:56 PM 48.9 °F - 9.0 °F 20% 30.01 in 10.0 mi NNW 9.2 mph - N/A   Clear
1:56 PM 51.1 °F - 9.0 °F 18% 30.00 in 10.0 mi North 9.2 mph - N/A   Clear
2:56 PM 51.1 °F - 9.0 °F 18% 29.98 in 10.0 mi NNW 10.4 mph 16.1 mph N/A   Clear
3:56 PM 51.1 °F - 9.0 °F 18% 29.99 in 10.0 mi NW 9.2 mph - N/A   Clear
4:56 PM 50.0 °F - 10.9 °F 21% 29.99 in 10.0 mi NNW 6.9 mph - N/A   Clear
5:56 PM 46.9 °F - 12.0 °F 24% 29.99 in 10.0 mi NW 4.6 mph - N/A   Clear
6:56 PM 37.9 °F - 26.1 °F 62% 30.01 in 10.0 mi Calm Calm - N/A   Clear
7:56 PM 37.0 °F - 24.1 °F 59% 30.02 in 10.0 mi Calm Calm - N/A   Clear
8:56 PM 34.0 °F - 26.1 °F 73% 30.04 in 10.0 mi Calm Calm - N/A   Clear
9:56 PM 30.9 °F 26.2 °F 26.1 °F 82% 30.04 in 10.0 mi North 4.6 mph - N/A   Clear
10:56 PM 30.9 °F - 25.0 °F 79% 30.04 in 10.0 mi Calm Calm - N/A   Clear
11:56 PM 30.0 °F - 24.1 °F 79% 30.04 in 10.0 mi Calm Calm - N/A   Clear